FW0816 Weather Reports


Display with metric or nautical units.
time (UTC)temp
F
wind
direction
speed
MPH
gust
MPH
rain 1hr
in
rain 24hr
in
rain mn
in
humidity
%
barometer
mb
20260506094600 64 242 31.0 48.0 0.00 0.00 0.00 70 1013.2
20260506093056 63 229 28.0 43.0 0.00 0.00 0.00 69 1013.0
20260506091554 64 197 27.0 43.0 0.00 0.00 0.00 68 1013.0
20260506090049 63 203 26.0 38.0 0.00 0.00 0.00 67 1012.7
20260506084546 63 207 24.0 37.0 0.00 0.00 0.00 65 1012.6
20260506083045 64 171 27.0 41.0 0.00 0.00 0.00 63 1012.5
20260506081546 64 227 23.0 36.0 0.00 0.00 0.00 63 1012.1
20260506073037 64 202 26.0 40.0 0.00 0.00 0.00 60 1012.4
20260506071544 64 198 24.0 36.0 0.00 0.00 0.00 60 1012.0
20260506061534 66 157 15.0 46.0 0.00 0.00 0.00 55 1012.2
20260506044603 66 218 26.0 35.0 0.00 0.00 0.00 55 1012.3
20260506043057 66 192 22.0 36.0 0.00 0.00 0.00 57 1012.4
20260506041558 66 190 20.0 32.0 0.00 0.00 0.00 57 1012.3
20260506040058 66 180 24.0 39.0 0.00 0.00 0.00 59 1012.3
20260506034552 66 207 22.0 40.0 0.00 0.00 0.00 58 1011.8
20260506033050 66 195 18.0 30.0 0.00 0.00 0.00 58 1011.7
20260506031557 66 155 17.0 34.0 0.00 0.00 0.00 57 1011.5
20260506030058 67 151 18.0 43.0 0.00 0.00 0.00 55 1011.4
20260506024542 68 205 21.0 34.0 0.00 0.00 0.00 53 1011.5
20260506023042 68 174 24.0 41.0 0.00 0.00 0.00 52 1011.7
20260506021541 69 186 23.0 40.0 0.00 0.00 0.00 51 1011.6
20260506020040 68 224 26.0 41.0 0.00 0.00 0.00 51 1011.4
20260506014538 68 195 23.0 42.0 0.00 0.00 0.00 51 1011.5
20260506013041 68 184 27.0 44.0 0.00 0.00 0.00 51 1011.5
20260506011536 68 171 22.0 38.0 0.00 0.00 0.00 50 1011.4
20260506010035 68 165 25.0 41.0 0.00 0.00 0.00 49 1011.3
20260506004559 67 195 25.0 40.0 0.00 0.00 0.00 49 1011.2
20260506003032 67 174 27.0 43.0 0.00 0.00 0.00 47 1011.0
20260506001531 67 206 28.0 42.0 0.00 0.00 0.00 46 1010.8
20260506000030 67 211 24.0 35.0 0.00 0.00 0.00 44 1010.5
20260505234601 67 206 24.0 40.0 0.00 0.00 0.00 43 1010.3
20260505233031 67 174 25.0 38.0 0.00 0.00 0.00 43 1010.2
20260505231529 68 176 14.0 33.0 0.00 0.00 0.00 44 1009.8
20260505230027 68 206 14.0 28.0 0.00 0.00 0.00 43 1009.7
20260505224530 69 165 13.0 24.0 0.00 0.00 0.00 44 1009.5
20260505223025 70 212 23.0 34.0 0.00 0.00 0.00 40 1009.7
20260505221527 71 177 15.0 27.0 0.00 0.00 0.00 41 1009.8
20260505220024 71 161 21.0 38.0 0.00 0.00 0.00 40 1009.8
20260505214524 72 185 22.0 35.0 0.00 0.00 0.00 40 1009.6
20260505213023 73 187 14.0 25.0 0.00 0.00 0.00 40 1009.6
20260505211522 74 212 22.0 29.0 0.00 0.00 0.00 38 1009.7
20260505210022 74 217 17.0 34.0 0.00 0.00 0.00 38 1009.8
20260505204525 74 200 22.0 33.0 0.00 0.00 0.00 37 1009.8
20260505203023 74 199 22.0 34.0 0.00 0.00 0.00 38 1009.8
20260505201525 74 225 20.0 30.0 0.00 0.00 0.00 36 1010.0
20260505200023 74 178 20.0 32.0 0.00 0.00 0.00 36 1009.8
20260505194517 74 185 14.0 39.0 0.00 0.00 0.00 38 1009.7
20260505193016 74 163 16.0 27.0 0.00 0.00 0.00 39 1009.7
20260505191519 74 194 13.0 32.0 0.00 0.00 0.00 40 1009.9
20260505190015 74 236 17.0 33.0 0.00 0.00 0.00 40 1009.6
20260505184523 74 262 15.0 41.0 0.00 0.00 0.00 40 1009.8
20260505183037 74 244 17.0 30.0 0.00 0.00 0.00 38 1009.7
20260505181513 74 259 17.0 31.0 0.00 0.00 0.00 40 1009.6
20260505180009 73 240 12.0 23.0 0.00 0.00 0.00 43 1009.7
20260505174509 57 273 7.0 12.0 0.00 0.00 0.00 66 1009.7
20260505173017 51 313 4.0 10.0 0.00 0.00 0.00 71 1010.0
20260505171506 50 323 4.0 9.0 0.00 0.00 0.00 79 1010.2
20260505170009 48 322 4.0 10.0 0.00 0.00 0.00 80 1010.4
20260505164505 47 307 6.0 9.0 0.00 0.03 0.00 79 1010.5
20260505163004 48 46 9.0 12.0 0.00 0.03 0.00 76 1010.4
20260505161503 50 48 11.0 13.0 0.00 0.03 0.00 70 1010.3
20260505153059 64 196 14.0 26.0 0.00 0.08 0.00 55 1010.3
20260505151603 63 230 10.0 23.0 0.00 0.08 0.00 53 1010.5
20260505124521 54 200 14.0 28.0 0.00 0.13 0.00 70 1010.8
20260505123016 53 151 9.0 27.0 0.00 0.13 0.00 70 1010.4
20260505121512 53 255 9.0 21.0 0.00 0.13 0.00 69 1010.3
20260505120007 53 232 6.0 19.0 0.00 0.13 0.00 69 1009.9
20260505114501 52 296 6.0 19.0 0.00 0.13 0.00 69 1009.6
20260505113057 51 154 7.0 21.0 0.00 0.13 0.00 73 1009.5
20260505111550 50 205 10.0 29.0 0.00 0.13 0.00 74 1009.7
20260505101539 48 229 9.0 19.0 0.00 0.14 0.00 80 1009.2
20260505100028 47 236 10.0 22.0 0.00 0.14 0.00 81 1009.0